owner,sensor,date,latitude,longitude,vertical_datum,sea_water_temperature,qcFlag
Anadarko,ioos:station:wmo:42377:2,2023-01-01T00:16:00Z,27.2925,-90.9681,21.3,22.3,11111222
Anadarko,ioos:station:wmo:42377:2,2023-01-01T00:36:00Z,27.2925,-90.9681,21.3,22.9,11111222
Anadarko,ioos:station:wmo:42377:2,2023-01-01T00:56:00Z,27.2925,-90.9681,21.3,22.3,11111222
Anadarko,ioos:station:wmo:42377:2,2023-01-01T01:16:00Z,27.2925,-90.9681,21.3,22.1,11111222
Anadarko,ioos:station:wmo:42377:2,2023-01-01T01:36:00Z,27.2925,-90.9681,21.3,22.3,11111222
Anadarko,ioos:station:wmo:42377:2,2023-01-01T01:56:00Z,27.2925,-90.9681,21.3,22.1,11111222
Anadarko,ioos:station:wmo:42377:2,2023-01-01T02:16:00Z,27.2925,-90.9681,21.3,22.0,11111222
Anadarko,ioos:station:wmo:42377:2,2023-01-01T02:36:00Z,27.2925,-90.9681,21.3,22.2,11111222
Anadarko,ioos:station:wmo:42377:2,2023-01-01T02:56:00Z,27.2925,-90.9681,21.3,22.8,11111222
Anadarko,ioos:station:wmo:42377:2,2023-01-01T03:16:00Z,27.2925,-90.9681,21.3,22.6,11111222
Anadarko,ioos:station:wmo:42377:2,2023-01-01T03:36:00Z,27.2925,-90.9681,21.3,22.7,11111222
Anadarko,ioos:station:wmo:42377:2,2023-01-01T03:56:00Z,27.2925,-90.9681,21.3,22.4,11111222
Anadarko,ioos:station:wmo:42377:2,2023-01-01T04:16:00Z,27.2925,-90.9681,21.3,22.3,11111222
Anadarko,ioos:station:wmo:42377:2,2023-01-01T04:36:00Z,27.2925,-90.9681,21.3,22.1,11111222
Anadarko,ioos:station:wmo:42377:2,2023-01-01T04:56:00Z,27.2925,-90.9681,21.3,22.1,11111222
Anadarko,ioos:station:wmo:42377:2,2023-01-01T05:16:00Z,27.2925,-90.9681,21.3,22.0,11111222
Anadarko,ioos:station:wmo:42377:2,2023-01-01T05:36:00Z,27.2925,-90.9681,21.3,22.1,11111222
Anadarko,ioos:station:wmo:42377:2,2023-01-01T05:56:00Z,27.2925,-90.9681,21.3,22.0,11111222
Anadarko,ioos:station:wmo:42377:2,2023-01-01T06:16:00Z,27.2925,-90.9681,21.3,22.6,11111222
Anadarko,ioos:station:wmo:42377:2,2023-01-01T06:36:00Z,27.2925,-90.9681,21.3,22.5,11111222
Anadarko,ioos:station:wmo:42377:2,2023-01-01T06:56:00Z,27.2925,-90.9681,21.3,22.1,11111222
Anadarko,ioos:station:wmo:42377:2,2023-01-01T07:16:00Z,27.2925,-90.9681,21.3,22.7,11111222
Anadarko,ioos:station:wmo:42377:2,2023-01-01T07:36:00Z,27.2925,-90.9681,21.3,22.5,11111222
Anadarko,ioos:station:wmo:42377:2,2023-01-01T07:56:00Z,27.2925,-90.9681,21.3,22.7,11111222
Anadarko,ioos:station:wmo:42377:2,2023-01-01T08:16:00Z,27.2925,-90.9681,21.3,22.2,11111222
Anadarko,ioos:station:wmo:42377:2,2023-01-01T08:36:00Z,27.2925,-90.9681,21.3,22.5,11111222
Anadarko,ioos:station:wmo:42377:2,2023-01-01T08:56:00Z,27.2925,-90.9681,21.3,22.1,11111222
Anadarko,ioos:station:wmo:42377:2,2023-01-01T09:16:00Z,27.2925,-90.9681,21.3,21.9,11111222
Anadarko,ioos:station:wmo:42377:2,2023-01-01T09:36:00Z,27.2925,-90.9681,21.3,22.4,11111222
Anadarko,ioos:station:wmo:42377:2,2023-01-01T09:56:00Z,27.2925,-90.9681,21.3,22.7,11111222
Anadarko,ioos:station:wmo:42377:2,2023-01-01T10:16:00Z,27.2925,-90.9681,21.3,22.4,11111222
Anadarko,ioos:station:wmo:42377:2,2023-01-01T10:36:00Z,27.2925,-90.9681,21.3,22.5,11111222
Anadarko,ioos:station:wmo:42377:2,2023-01-01T10:56:00Z,27.2925,-90.9681,21.3,23.2,11111222
Anadarko,ioos:station:wmo:42377:2,2023-01-01T11:16:00Z,27.2925,-90.9681,21.3,23.2,11111222
Anadarko,ioos:station:wmo:42377:2,2023-01-01T11:36:00Z,27.2925,-90.9681,21.3,22.6,11111222
Anadarko,ioos:station:wmo:42377:2,2023-01-01T11:56:00Z,27.2925,-90.9681,21.3,23.2,11111222
Anadarko,ioos:station:wmo:42377:2,2023-01-01T12:16:00Z,27.2925,-90.9681,21.3,23.2,11111222
Anadarko,ioos:station:wmo:42377:2,2023-01-01T12:36:00Z,27.2925,-90.9681,21.3,22.8,11111222
Anadarko,ioos:station:wmo:42377:2,2023-01-01T12:56:00Z,27.2925,-90.9681,21.3,22.8,11111222
Anadarko,ioos:station:wmo:42377:2,2023-01-01T13:16:00Z,27.2925,-90.9681,21.3,22.9,11111222
Anadarko,ioos:station:wmo:42377:2,2023-01-01T13:36:00Z,27.2925,-90.9681,21.3,22.6,11111222
Anadarko,ioos:station:wmo:42377:2,2023-01-01T13:56:00Z,27.2925,-90.9681,21.3,22.5,11111222
Anadarko,ioos:station:wmo:42377:2,2023-01-01T14:16:00Z,27.2925,-90.9681,21.3,23.3,11111222
Anadarko,ioos:station:wmo:42377:2,2023-01-01T14:36:00Z,27.2925,-90.9681,21.3,22.2,11111222
Anadarko,ioos:station:wmo:42377:2,2023-01-01T14:56:00Z,27.2925,-90.9681,21.3,22.6,11111222
Anadarko,ioos:station:wmo:42377:2,2023-01-01T15:16:00Z,27.2925,-90.9681,21.3,23.0,11111222
Anadarko,ioos:station:wmo:42377:2,2023-01-01T15:36:00Z,27.2925,-90.9681,21.3,23.1,11111222
Anadarko,ioos:station:wmo:42377:2,2023-01-01T15:56:00Z,27.2925,-90.9681,21.3,22.6,11111222
Anadarko,ioos:station:wmo:42377:2,2023-01-01T16:16:00Z,27.2925,-90.9681,21.3,22.2,11111222
Anadarko,ioos:station:wmo:42377:2,2023-01-01T16:36:00Z,27.2925,-90.9681,21.3,22.8,11111222
Anadarko,ioos:station:wmo:42377:2,2023-01-01T16:56:00Z,27.2925,-90.9681,21.3,23.0,11111222
Anadarko,ioos:station:wmo:42377:2,2023-01-01T17:16:00Z,27.2925,-90.9681,21.3,22.8,11111222
Anadarko,ioos:station:wmo:42377:2,2023-01-01T17:36:00Z,27.2925,-90.9681,21.3,22.5,11111222
Anadarko,ioos:station:wmo:42377:2,2023-01-01T17:56:00Z,27.2925,-90.9681,21.3,22.4,11111222
Anadarko,ioos:station:wmo:42377:2,2023-01-01T18:16:00Z,27.2925,-90.9681,21.3,22.8,11111222
Anadarko,ioos:station:wmo:42377:2,2023-01-01T18:36:00Z,27.2925,-90.9681,21.3,22.7,11111222
Anadarko,ioos:station:wmo:42377:2,2023-01-01T18:56:00Z,27.2925,-90.9681,21.3,22.7,11111222
Anadarko,ioos:station:wmo:42377:2,2023-01-01T19:16:00Z,27.2925,-90.9681,21.3,22.5,11111222
Anadarko,ioos:station:wmo:42377:2,2023-01-01T19:36:00Z,27.2925,-90.9681,21.3,22.2,11111222
Anadarko,ioos:station:wmo:42377:2,2023-01-01T19:56:00Z,27.2925,-90.9681,21.3,22.7,11111222
Anadarko,ioos:station:wmo:42377:2,2023-01-01T20:16:00Z,27.2925,-90.9681,21.3,22.6,11111222
Anadarko,ioos:station:wmo:42377:2,2023-01-01T20:36:00Z,27.2925,-90.9681,21.3,22.2,11111222
Anadarko,ioos:station:wmo:42377:2,2023-01-01T20:56:00Z,27.2925,-90.9681,21.3,22.5,11111222
Anadarko,ioos:station:wmo:42377:2,2023-01-01T21:16:00Z,27.2925,-90.9681,21.3,22.3,11111222
Anadarko,ioos:station:wmo:42377:2,2023-01-01T21:36:00Z,27.2925,-90.9681,21.3,22.0,11111222
Anadarko,ioos:station:wmo:42377:2,2023-01-01T21:56:00Z,27.2925,-90.9681,21.3,22.7,11111222
Anadarko,ioos:station:wmo:42377:2,2023-01-01T22:16:00Z,27.2925,-90.9681,21.3,22.7,11111222
Anadarko,ioos:station:wmo:42377:2,2023-01-01T22:36:00Z,27.2925,-90.9681,21.3,22.7,11111222
Anadarko,ioos:station:wmo:42377:2,2023-01-01T22:56:00Z,27.2925,-90.9681,21.3,22.0,11111222
Anadarko,ioos:station:wmo:42377:2,2023-01-01T23:16:00Z,27.2925,-90.9681,21.3,22.1,11111222
Anadarko,ioos:station:wmo:42377:2,2023-01-01T23:36:00Z,27.2925,-90.9681,21.3,22.1,11111222
Anadarko,ioos:station:wmo:42377:2,2023-01-01T23:56:00Z,27.2925,-90.9681,21.3,22.7,11111222
Anadarko,ioos:station:wmo:42377:2,2023-01-02T00:16:00Z,27.2925,-90.9681,21.3,22.3,11111222
Anadarko,ioos:station:wmo:42377:2,2023-01-02T00:36:00Z,27.2925,-90.9681,21.3,22.6,11111222
Anadarko,ioos:station:wmo:42377:2,2023-01-02T00:56:00Z,27.2925,-90.9681,21.3,22.5,11111222
Anadarko,ioos:station:wmo:42377:2,2023-01-02T01:16:00Z,27.2925,-90.9681,21.3,22.5,11111222
Anadarko,ioos:station:wmo:42377:2,2023-01-02T01:36:00Z,27.2925,-90.9681,21.3,22.7,11111222
Anadarko,ioos:station:wmo:42377:2,2023-01-02T01:56:00Z,27.2925,-90.9681,21.3,22.7,11111222
Anadarko,ioos:station:wmo:42377:2,2023-01-02T02:16:00Z,27.2925,-90.9681,21.3,22.7,11111222
Anadarko,ioos:station:wmo:42377:2,2023-01-02T02:36:00Z,27.2925,-90.9681,21.3,22.0,11111222
Anadarko,ioos:station:wmo:42377:2,2023-01-02T02:56:00Z,27.2925,-90.9681,21.3,22.6,11111222
Anadarko,ioos:station:wmo:42377:2,2023-01-02T03:16:00Z,27.2925,-90.9681,21.3,22.0,11111222
Anadarko,ioos:station:wmo:42377:2,2023-01-02T03:36:00Z,27.2925,-90.9681,21.3,22.6,11111222
Anadarko,ioos:station:wmo:42377:2,2023-01-02T03:56:00Z,27.2925,-90.9681,21.3,22.2,11111222
Anadarko,ioos:station:wmo:42377:2,2023-01-02T04:16:00Z,27.2925,-90.9681,21.3,22.7,11111222
Anadarko,ioos:station:wmo:42377:2,2023-01-02T04:36:00Z,27.2925,-90.9681,21.3,22.4,11111222
Anadarko,ioos:station:wmo:42377:2,2023-01-02T04:56:00Z,27.2925,-90.9681,21.3,22.8,11111222
Anadarko,ioos:station:wmo:42377:2,2023-01-02T05:16:00Z,27.2925,-90.9681,21.3,22.3,11111222
Anadarko,ioos:station:wmo:42377:2,2023-01-02T05:36:00Z,27.2925,-90.9681,21.3,22.7,11111222
Anadarko,ioos:station:wmo:42377:2,2023-01-02T05:56:00Z,27.2925,-90.9681,21.3,22.5,11111222
Anadarko,ioos:station:wmo:42377:2,2023-01-02T06:16:00Z,27.2925,-90.9681,21.3,22.9,11111222
Anadarko,ioos:station:wmo:42377:2,2023-01-02T06:36:00Z,27.2925,-90.9681,21.3,23.1,11111222
Anadarko,ioos:station:wmo:42377:2,2023-01-02T06:56:00Z,27.2925,-90.9681,21.3,23.2,11111222
Anadarko,ioos:station:wmo:42377:2,2023-01-02T07:16:00Z,27.2925,-90.9681,21.3,23.1,11111222
Anadarko,ioos:station:wmo:42377:2,2023-01-02T07:36:00Z,27.2925,-90.9681,21.3,23.4,11111222
Anadarko,ioos:station:wmo:42377:2,2023-01-02T07:56:00Z,27.2925,-90.9681,21.3,23.3,11111222
Anadarko,ioos:station:wmo:42377:2,2023-01-02T08:16:00Z,27.2925,-90.9681,21.3,22.7,11111222
Anadarko,ioos:station:wmo:42377:2,2023-01-02T08:36:00Z,27.2925,-90.9681,21.3,22.7,11111222
Anadarko,ioos:station:wmo:42377:2,2023-01-02T08:56:00Z,27.2925,-90.9681,21.3,23.4,11111222
Anadarko,ioos:station:wmo:42377:2,2023-01-02T09:16:00Z,27.2925,-90.9681,21.3,22.8,11111222
Anadarko,ioos:station:wmo:42377:2,2023-01-02T09:36:00Z,27.2925,-90.9681,21.3,22.9,11111222
Anadarko,ioos:station:wmo:42377:2,2023-01-02T09:56:00Z,27.2925,-90.9681,21.3,23.2,11111222
Anadarko,ioos:station:wmo:42377:2,2023-01-02T10:16:00Z,27.2925,-90.9681,21.3,23.2,11111222
Anadarko,ioos:station:wmo:42377:2,2023-01-02T10:36:00Z,27.2925,-90.9681,21.3,23.0,11111222
Anadarko,ioos:station:wmo:42377:2,2023-01-02T10:56:00Z,27.2925,-90.9681,21.3,23.3,11111222
Anadarko,ioos:station:wmo:42377:2,2023-01-02T11:16:00Z,27.2925,-90.9681,21.3,23.5,11111222
Anadarko,ioos:station:wmo:42377:2,2023-01-02T11:36:00Z,27.2925,-90.9681,21.3,23.5,11111222
Anadarko,ioos:station:wmo:42377:2,2023-01-02T11:56:00Z,27.2925,-90.9681,21.3,22.9,11111222
Anadarko,ioos:station:wmo:42377:2,2023-01-02T12:16:00Z,27.2925,-90.9681,21.3,22.8,11111222
Anadarko,ioos:station:wmo:42377:2,2023-01-02T12:36:00Z,27.2925,-90.9681,21.3,23.4,11111222
Anadarko,ioos:station:wmo:42377:2,2023-01-02T12:56:00Z,27.2925,-90.9681,21.3,22.8,11111222
Anadarko,ioos:station:wmo:42377:2,2023-01-02T13:16:00Z,27.2925,-90.9681,21.3,22.8,11111222
Anadarko,ioos:station:wmo:42377:2,2023-01-02T13:36:00Z,27.2925,-90.9681,21.3,23.4,11111222
Anadarko,ioos:station:wmo:42377:2,2023-01-02T13:56:00Z,27.2925,-90.9681,21.3,23.5,11111222
Anadarko,ioos:station:wmo:42377:2,2023-01-02T14:16:00Z,27.2925,-90.9681,21.3,22.9,11111222
Anadarko,ioos:station:wmo:42377:2,2023-01-02T14:36:00Z,27.2925,-90.9681,21.3,23.4,11111222
Anadarko,ioos:station:wmo:42377:2,2023-01-02T14:56:00Z,27.2925,-90.9681,21.3,23.4,11111222
Anadarko,ioos:station:wmo:42377:2,2023-01-02T15:16:00Z,27.2925,-90.9681,21.3,22.9,11111222
Anadarko,ioos:station:wmo:42377:2,2023-01-02T15:36:00Z,27.2925,-90.9681,21.3,23.6,11111222
Anadarko,ioos:station:wmo:42377:2,2023-01-02T15:56:00Z,27.2925,-90.9681,21.3,23.3,11111222
Anadarko,ioos:station:wmo:42377:2,2023-01-02T16:16:00Z,27.2925,-90.9681,21.3,23.1,11111222
Anadarko,ioos:station:wmo:42377:2,2023-01-02T16:36:00Z,27.2925,-90.9681,21.3,23.5,11111222
Anadarko,ioos:station:wmo:42377:2,2023-01-02T16:56:00Z,27.2925,-90.9681,21.3,23.3,11111222
Anadarko,ioos:station:wmo:42377:2,2023-01-02T17:16:00Z,27.2925,-90.9681,21.3,23.2,11111222
Anadarko,ioos:station:wmo:42377:2,2023-01-02T17:36:00Z,27.2925,-90.9681,21.3,23.5,11111222
Anadarko,ioos:station:wmo:42377:2,2023-01-02T17:56:00Z,27.2925,-90.9681,21.3,23.2,11111222
Anadarko,ioos:station:wmo:42377:2,2023-01-02T18:16:00Z,27.2925,-90.9681,21.3,23.1,11111222
Anadarko,ioos:station:wmo:42377:2,2023-01-02T18:36:00Z,27.2925,-90.9681,21.3,23.7,11111222
Anadarko,ioos:station:wmo:42377:2,2023-01-02T18:56:00Z,27.2925,-90.9681,21.3,23.4,11111222
Anadarko,ioos:station:wmo:42377:2,2023-01-02T19:16:00Z,27.2925,-90.9681,21.3,23.0,11111222
Anadarko,ioos:station:wmo:42377:2,2023-01-02T19:36:00Z,27.2925,-90.9681,21.3,23.0,11111222
Anadarko,ioos:station:wmo:42377:2,2023-01-02T19:56:00Z,27.2925,-90.9681,21.3,22.9,11111222
Anadarko,ioos:station:wmo:42377:2,2023-01-02T20:16:00Z,27.2925,-90.9681,21.3,23.7,11111222
Anadarko,ioos:station:wmo:42377:2,2023-01-02T20:36:00Z,27.2925,-90.9681,21.3,22.9,11111222
Anadarko,ioos:station:wmo:42377:2,2023-01-02T20:56:00Z,27.2925,-90.9681,21.3,23.5,11111222
Anadarko,ioos:station:wmo:42377:2,2023-01-02T21:16:00Z,27.2925,-90.9681,21.3,23.7,11111222
Anadarko,ioos:station:wmo:42377:2,2023-01-02T21:36:00Z,27.2925,-90.9681,21.3,23.2,11111222
Anadarko,ioos:station:wmo:42377:2,2023-01-02T21:56:00Z,27.2925,-90.9681,21.3,23.4,11111222
Anadarko,ioos:station:wmo:42377:2,2023-01-02T22:16:00Z,27.2925,-90.9681,21.3,23.7,11111222
Anadarko,ioos:station:wmo:42377:2,2023-01-02T22:36:00Z,27.2925,-90.9681,21.3,23.5,11111222
Anadarko,ioos:station:wmo:42377:2,2023-01-02T22:56:00Z,27.2925,-90.9681,21.3,23.0,11111222
Anadarko,ioos:station:wmo:42377:2,2023-01-02T23:16:00Z,27.2925,-90.9681,21.3,22.9,11111222
Anadarko,ioos:station:wmo:42377:2,2023-01-02T23:36:00Z,27.2925,-90.9681,21.3,23.0,11111222
Anadarko,ioos:station:wmo:42377:2,2023-01-02T23:56:00Z,27.2925,-90.9681,21.3,23.3,11111222
Anadarko,ioos:station:wmo:42377:2,2023-01-03T00:16:00Z,27.2925,-90.9681,21.3,23.6,11111222
Anadarko,ioos:station:wmo:42377:2,2023-01-03T00:36:00Z,27.2925,-90.9681,21.3,22.9,11111222
Anadarko,ioos:station:wmo:42377:2,2023-01-03T00:56:00Z,27.2925,-90.9681,21.3,22.9,11111222
Anadarko,ioos:station:wmo:42377:2,2023-01-03T01:16:00Z,27.2925,-90.9681,21.3,23.5,11111222
Anadarko,ioos:station:wmo:42377:2,2023-01-03T01:36:00Z,27.2925,-90.9681,21.3,23.1,11111222
Anadarko,ioos:station:wmo:42377:2,2023-01-03T01:56:00Z,27.2925,-90.9681,21.3,23.1,11111222
Anadarko,ioos:station:wmo:42377:2,2023-01-03T02:16:00Z,27.2925,-90.9681,21.3,23.2,11111222
Anadarko,ioos:station:wmo:42377:2,2023-01-03T02:36:00Z,27.2925,-90.9681,21.3,23.0,11111222
Anadarko,ioos:station:wmo:42377:2,2023-01-03T02:56:00Z,27.2925,-90.9681,21.3,23.5,11111222
Anadarko,ioos:station:wmo:42377:2,2023-01-03T03:16:00Z,27.2925,-90.9681,21.3,22.9,11111222
Anadarko,ioos:station:wmo:42377:2,2023-01-03T03:36:00Z,27.2925,-90.9681,21.3,23.3,11111222
Anadarko,ioos:station:wmo:42377:2,2023-01-03T03:56:00Z,27.2925,-90.9681,21.3,23.5,11111222
Anadarko,ioos:station:wmo:42377:2,2023-01-03T04:16:00Z,27.2925,-90.9681,21.3,23.3,11111222
Anadarko,ioos:station:wmo:42377:2,2023-01-03T04:36:00Z,27.2925,-90.9681,21.3,23.1,11111222
Anadarko,ioos:station:wmo:42377:2,2023-01-03T04:56:00Z,27.2925,-90.9681,21.3,23.6,11111222
Anadarko,ioos:station:wmo:42377:2,2023-01-03T05:16:00Z,27.2925,-90.9681,21.3,22.8,11111222
Anadarko,ioos:station:wmo:42377:2,2023-01-03T05:36:00Z,27.2925,-90.9681,21.3,23.5,11111222
Anadarko,ioos:station:wmo:42377:2,2023-01-03T05:56:00Z,27.2925,-90.9681,21.3,22.9,11111222
Anadarko,ioos:station:wmo:42377:2,2023-01-03T06:16:00Z,27.2925,-90.9681,21.3,23.5,11111222
Anadarko,ioos:station:wmo:42377:2,2023-01-03T06:36:00Z,27.2925,-90.9681,21.3,22.8,11111222
Anadarko,ioos:station:wmo:42377:2,2023-01-03T06:56:00Z,27.2925,-90.9681,21.3,23.0,11111222
Anadarko,ioos:station:wmo:42377:2,2023-01-03T07:16:00Z,27.2925,-90.9681,21.3,22.9,11111222
Anadarko,ioos:station:wmo:42377:2,2023-01-03T07:36:00Z,27.2925,-90.9681,21.3,22.8,11111222
Anadarko,ioos:station:wmo:42377:2,2023-01-03T07:56:00Z,27.2925,-90.9681,21.3,23.6,11111222
Anadarko,ioos:station:wmo:42377:2,2023-01-03T08:16:00Z,27.2925,-90.9681,21.3,22.8,11111222
Anadarko,ioos:station:wmo:42377:2,2023-01-03T08:36:00Z,27.2925,-90.9681,21.3,23.1,11111222
Anadarko,ioos:station:wmo:42377:2,2023-01-03T08:56:00Z,27.2925,-90.9681,21.3,23.2,11111222
Anadarko,ioos:station:wmo:42377:2,2023-01-03T09:16:00Z,27.2925,-90.9681,21.3,23.5,11111222
Anadarko,ioos:station:wmo:42377:2,2023-01-03T09:36:00Z,27.2925,-90.9681,21.3,23.5,11111222
Anadarko,ioos:station:wmo:42377:2,2023-01-03T09:56:00Z,27.2925,-90.9681,21.3,23.6,11111222
Anadarko,ioos:station:wmo:42377:2,2023-01-03T10:16:00Z,27.2925,-90.9681,21.3,23.6,11111222
Anadarko,ioos:station:wmo:42377:2,2023-01-03T10:36:00Z,27.2925,-90.9681,21.3,23.6,11111222
Anadarko,ioos:station:wmo:42377:2,2023-01-03T10:56:00Z,27.2925,-90.9681,21.3,22.9,11111222
Anadarko,ioos:station:wmo:42377:2,2023-01-03T11:16:00Z,27.2925,-90.9681,21.3,23.2,11111222
Anadarko,ioos:station:wmo:42377:2,2023-01-03T11:36:00Z,27.2925,-90.9681,21.3,22.9,11111222
Anadarko,ioos:station:wmo:42377:2,2023-01-03T11:56:00Z,27.2925,-90.9681,21.3,23.1,11111222
Anadarko,ioos:station:wmo:42377:2,2023-01-03T12:16:00Z,27.2925,-90.9681,21.3,23.0,11111222
Anadarko,ioos:station:wmo:42377:2,2023-01-03T12:36:00Z,27.2925,-90.9681,21.3,23.6,11111222
Anadarko,ioos:station:wmo:42377:2,2023-01-03T12:56:00Z,27.2925,-90.9681,21.3,23.5,11111222
Anadarko,ioos:station:wmo:42377:2,2023-01-03T13:16:00Z,27.2925,-90.9681,21.3,23.6,11111222
Anadarko,ioos:station:wmo:42377:2,2023-01-03T13:36:00Z,27.2925,-90.9681,21.3,23.1,11111222
Anadarko,ioos:station:wmo:42377:2,2023-01-03T13:56:00Z,27.2925,-90.9681,21.3,23.1,11111222
Anadarko,ioos:station:wmo:42377:2,2023-01-03T14:16:00Z,27.2925,-90.9681,21.3,23.4,11111222
Anadarko,ioos:station:wmo:42377:2,2023-01-03T14:36:00Z,27.2925,-90.9681,21.3,23.1,11111222
Anadarko,ioos:station:wmo:42377:2,2023-01-03T14:56:00Z,27.2925,-90.9681,21.3,23.5,11111222
Anadarko,ioos:station:wmo:42377:2,2023-01-03T15:16:00Z,27.2925,-90.9681,21.3,23.0,11111222
Anadarko,ioos:station:wmo:42377:2,2023-01-03T15:36:00Z,27.2925,-90.9681,21.3,23.3,11111222
Anadarko,ioos:station:wmo:42377:2,2023-01-03T15:56:00Z,27.2925,-90.9681,21.3,22.9,11111222
Anadarko,ioos:station:wmo:42377:2,2023-01-03T16:16:00Z,27.2925,-90.9681,21.3,23.4,11111222
Anadarko,ioos:station:wmo:42377:2,2023-01-03T16:36:00Z,27.2925,-90.9681,21.3,23.6,11111222
Anadarko,ioos:station:wmo:42377:2,2023-01-03T16:56:00Z,27.2925,-90.9681,21.3,23.5,11111222
Anadarko,ioos:station:wmo:42377:2,2023-01-03T17:16:00Z,27.2925,-90.9681,21.3,23.5,11111222
Anadarko,ioos:station:wmo:42377:2,2023-01-03T17:36:00Z,27.2925,-90.9681,21.3,22.9,11111222
Anadarko,ioos:station:wmo:42377:2,2023-01-03T17:56:00Z,27.2925,-90.9681,21.3,23.5,11111222
Anadarko,ioos:station:wmo:42377:2,2023-01-03T18:16:00Z,27.2925,-90.9681,21.3,23.0,11111222
Anadarko,ioos:station:wmo:42377:2,2023-01-03T18:36:00Z,27.2925,-90.9681,21.3,23.2,11111222
Anadarko,ioos:station:wmo:42377:2,2023-01-03T18:56:00Z,27.2925,-90.9681,21.3,23.1,11111222
Anadarko,ioos:station:wmo:42377:2,2023-01-03T19:16:00Z,27.2925,-90.9681,21.3,22.9,11111222
Anadarko,ioos:station:wmo:42377:2,2023-01-03T19:36:00Z,27.2925,-90.9681,21.3,22.8,11111222
Anadarko,ioos:station:wmo:42377:2,2023-01-03T19:56:00Z,27.2925,-90.9681,21.3,23.5,11111222
Anadarko,ioos:station:wmo:42377:2,2023-01-03T20:16:00Z,27.2925,-90.9681,21.3,23.0,11111222
Anadarko,ioos:station:wmo:42377:2,2023-01-03T20:36:00Z,27.2925,-90.9681,21.3,23.1,11111222
Anadarko,ioos:station:wmo:42377:2,2023-01-03T20:56:00Z,27.2925,-90.9681,21.3,23.2,11111222
Anadarko,ioos:station:wmo:42377:2,2023-01-03T21:16:00Z,27.2925,-90.9681,21.3,22.7,11111222
Anadarko,ioos:station:wmo:42377:2,2023-01-03T21:36:00Z,27.2925,-90.9681,21.3,22.8,11111222
Anadarko,ioos:station:wmo:42377:2,2023-01-03T21:56:00Z,27.2925,-90.9681,21.3,22.8,11111222
Anadarko,ioos:station:wmo:42377:2,2023-01-03T22:16:00Z,27.2925,-90.9681,21.3,23.4,11111222
Anadarko,ioos:station:wmo:42377:2,2023-01-03T22:36:00Z,27.2925,-90.9681,21.3,22.7,11111222
Anadarko,ioos:station:wmo:42377:2,2023-01-03T22:56:00Z,27.2925,-90.9681,21.3,22.8,11111222
Anadarko,ioos:station:wmo:42377:2,2023-01-03T23:16:00Z,27.2925,-90.9681,21.3,23.0,11111222
Anadarko,ioos:station:wmo:42377:2,2023-01-03T23:36:00Z,27.2925,-90.9681,21.3,23.2,11111222
Anadarko,ioos:station:wmo:42377:2,2023-01-03T23:56:00Z,27.2925,-90.9681,21.3,23.2,11111222
Anadarko,ioos:station:wmo:42377:2,2023-01-04T00:16:00Z,27.2925,-90.9681,21.3,23.2,11111222
Anadarko,ioos:station:wmo:42377:2,2023-01-04T00:36:00Z,27.2925,-90.9681,21.3,22.7,11111222
Anadarko,ioos:station:wmo:42377:2,2023-01-04T00:56:00Z,27.2925,-90.9681,21.3,23.2,11111222
Anadarko,ioos:station:wmo:42377:2,2023-01-04T01:16:00Z,27.2925,-90.9681,21.3,22.6,11111222
Anadarko,ioos:station:wmo:42377:2,2023-01-04T01:36:00Z,27.2925,-90.9681,21.3,22.6,11111222
Anadarko,ioos:station:wmo:42377:2,2023-01-04T01:56:00Z,27.2925,-90.9681,21.3,22.5,11111222
Anadarko,ioos:station:wmo:42377:2,2023-01-04T02:16:00Z,27.2925,-90.9681,21.3,22.7,11111222
Anadarko,ioos:station:wmo:42377:2,2023-01-04T02:36:00Z,27.2925,-90.9681,21.3,22.7,11111222
Anadarko,ioos:station:wmo:42377:2,2023-01-04T02:56:00Z,27.2925,-90.9681,21.3,23.1,11111222
Anadarko,ioos:station:wmo:42377:2,2023-01-04T03:16:00Z,27.2925,-90.9681,21.3,22.6,11111222
Anadarko,ioos:station:wmo:42377:2,2023-01-04T03:36:00Z,27.2925,-90.9681,21.3,23.4,11111222
Anadarko,ioos:station:wmo:42377:2,2023-01-04T03:56:00Z,27.2925,-90.9681,21.3,23.4,11111222
Anadarko,ioos:station:wmo:42377:2,2023-01-04T04:16:00Z,27.2925,-90.9681,21.3,23.5,11111222
Anadarko,ioos:station:wmo:42377:2,2023-01-04T04:36:00Z,27.2925,-90.9681,21.3,23.2,11111222
Anadarko,ioos:station:wmo:42377:2,2023-01-04T04:56:00Z,27.2925,-90.9681,21.3,23.6,11111222
Anadarko,ioos:station:wmo:42377:2,2023-01-04T05:16:00Z,27.2925,-90.9681,21.3,23.3,11111222
Anadarko,ioos:station:wmo:42377:2,2023-01-04T05:36:00Z,27.2925,-90.9681,21.3,23.6,11111222
Anadarko,ioos:station:wmo:42377:2,2023-01-04T05:56:00Z,27.2925,-90.9681,21.3,23.3,11111222
Anadarko,ioos:station:wmo:42377:2,2023-01-04T06:16:00Z,27.2925,-90.9681,21.3,23.7,11111222
Anadarko,ioos:station:wmo:42377:2,2023-01-04T06:36:00Z,27.2925,-90.9681,21.3,23.5,11111222
Anadarko,ioos:station:wmo:42377:2,2023-01-04T06:56:00Z,27.2925,-90.9681,21.3,22.9,11111222
Anadarko,ioos:station:wmo:42377:2,2023-01-04T07:16:00Z,27.2925,-90.9681,21.3,23.6,11111222
Anadarko,ioos:station:wmo:42377:2,2023-01-04T07:36:00Z,27.2925,-90.9681,21.3,23.3,11111222
Anadarko,ioos:station:wmo:42377:2,2023-01-04T07:56:00Z,27.2925,-90.9681,21.3,23.4,11111222
Anadarko,ioos:station:wmo:42377:2,2023-01-04T08:16:00Z,27.2925,-90.9681,21.3,23.6,11111222
Anadarko,ioos:station:wmo:42377:2,2023-01-04T08:36:00Z,27.2925,-90.9681,21.3,23.2,11111222
Anadarko,ioos:station:wmo:42377:2,2023-01-04T08:56:00Z,27.2925,-90.9681,21.3,23.6,11111222
Anadarko,ioos:station:wmo:42377:2,2023-01-04T09:16:00Z,27.2925,-90.9681,21.3,23.4,11111222
Anadarko,ioos:station:wmo:42377:2,2023-01-04T09:36:00Z,27.2925,-90.9681,21.3,23.6,11111222
Anadarko,ioos:station:wmo:42377:2,2023-01-04T09:56:00Z,27.2925,-90.9681,21.3,22.9,11111222
Anadarko,ioos:station:wmo:42377:2,2023-01-04T10:16:00Z,27.2925,-90.9681,21.3,23.5,11111222
Anadarko,ioos:station:wmo:42377:2,2023-01-04T10:36:00Z,27.2925,-90.9681,21.3,23.3,11111222
Anadarko,ioos:station:wmo:42377:2,2023-01-04T10:56:00Z,27.2925,-90.9681,21.3,23.6,11111222
Anadarko,ioos:station:wmo:42377:2,2023-01-04T11:16:00Z,27.2925,-90.9681,21.3,23.3,11111222
Anadarko,ioos:station:wmo:42377:2,2023-01-04T11:36:00Z,27.2925,-90.9681,21.3,23.6,11111222
Anadarko,ioos:station:wmo:42377:2,2023-01-04T11:56:00Z,27.2925,-90.9681,21.3,22.8,11111222
Anadarko,ioos:station:wmo:42377:2,2023-01-04T12:16:00Z,27.2925,-90.9681,21.3,23.4,11111222
Anadarko,ioos:station:wmo:42377:2,2023-01-04T12:36:00Z,27.2925,-90.9681,21.3,23.3,11111222
Anadarko,ioos:station:wmo:42377:2,2023-01-04T12:56:00Z,27.2925,-90.9681,21.3,22.8,11111222
Anadarko,ioos:station:wmo:42377:2,2023-01-04T13:16:00Z,27.2925,-90.9681,21.3,23.5,11111222
Anadarko,ioos:station:wmo:42377:2,2023-01-04T13:36:00Z,27.2925,-90.9681,21.3,22.7,11111222
Anadarko,ioos:station:wmo:42377:2,2023-01-04T13:56:00Z,27.2925,-90.9681,21.3,23.0,11111222
Anadarko,ioos:station:wmo:42377:2,2023-01-04T14:16:00Z,27.2925,-90.9681,21.3,22.8,11111222